This is the latest recevied weather packets stored in our database for station/object K4GSL. If no packets are shown the sender has not sent any weather packets the latest 10 day(s).
| Time | Temp. | Humidity | Pressure | Rain* | Wind** | Luminosity | Snow |
|---|---|---|---|---|---|---|---|
| 1777782331 | 15° C | 93% | 1016.7 hPa | 0 mm | - | 0 W/m² | - |
| 1777782027 | 15° C | 92% | 1016.7 hPa | 0 mm | - | 0 W/m² | - |
| 1777781724 | 15° C | 91% | 1016.5 hPa | 0 mm | - | 0 W/m² | - |
| 1777781422 | 15° C | 91% | 1016.4 hPa | 0 mm | - | 0 W/m² | - |
| 1777781119 | 15.56° C | 90% | 1016.3 hPa | 0 mm | - | 0 W/m² | - |
| 1777780817 | 15.56° C | 88% | 1016.5 hPa | 0 mm | - | 0 W/m² | - |
| 1777780513 | 16.11° C | 86% | 1016 hPa | 0 mm | - | 0 W/m² | - |
| 1777780211 | 15.56° C | 87% | 1016.2 hPa | 0 mm | - | 0 W/m² | - |
| 1777779908 | 15.56° C | 87% | 1016.3 hPa | 0 mm | - | 0 W/m² | - |
| 1777779604 | 15.56° C | 88% | 1016.2 hPa | 0 mm | - | 0 W/m² | - |
| 1777779302 | 15.56° C | 89% | 1016.2 hPa | 0 mm | - | 0 W/m² | - |
| 1777779000 | 15.56° C | 88% | 1016.1 hPa | 0 mm | - | 0 W/m² | - |
| 1777778698 | 15.56° C | 89% | 1016.1 hPa | 0 mm | - | 0 W/m² | - |
| 1777778396 | 15.56° C | 89% | 1016.2 hPa | 0 mm | - | 0 W/m² | - |
| 1777778093 | 15° C | 92% | 1016 hPa | 0 mm | - | 2 W/m² | - |
| 1777777790 | 15° C | 95% | 1015.9 hPa | 0 mm | - | 3 W/m² | - |
| 1777777486 | 14.44° C | 98% | 1015.8 hPa | 0 mm | - | 6 W/m² | - |
| 1777777183 | 14.44° C | 98% | 1016 hPa | 0 mm | - | 10 W/m² | - |
| 1777776880 | 14.44° C | 98% | 1015.7 hPa | 0 mm | - | 15 W/m² | - |
| 1777776578 | 15° C | 98% | 1015.7 hPa | 0 mm | - | 16 W/m² | - |
| 1777776274 | 15° C | 97% | 1015.8 hPa | 0 mm | - | 18 W/m² | - |
| 1777775971 | 15° C | 97% | 1015.6 hPa | 0 mm | - | 19 W/m² | - |
| 1777775668 | 15° C | 97% | 1015.9 hPa | 0 mm | - | 17 W/m² | - |
| 1777775365 | 15° C | 96% | 1015.7 hPa | 0 mm | - | 17 W/m² | - |
| 1777775060 | 15° C | 96% | 1015.6 hPa | 0 mm | - | 17 W/m² | - |
* Rain latest hour (hover to see other rain measurements)
** Current wind speed in m/s (hover to see current wind gust speed)